Weather History for Denver, CO

Change the Weather History Date:

Thursday, January 17, 2013

  Actual Average (KDEN) Record (KDEN)
Temperature  
Mean Temperature 36 °F 31 °F  
Max Temperature 46 °F 44 °F 65 °F (1971)
Min Temperature 26 °F 18 °F -20 °F (1930)
Degree Days  
Heating Degree Days 29 34  
Month to date heating degree days 583  
Since 1 July heating degree days 3051  
Cooling Degree Days 0 0  
Month to date cooling degree days 0  
Year to date cooling degree days 0  
Moisture  
Dew Point 21 °F    
Average Humidity 67    
Maximum Humidity 80    
Minimum Humidity 43    
Precipitation  
Precipitation 0.00 in 0.01 in 0.62 in (1905)
Month to date precipitation 0.22  
Year to date precipitation 0.22  
Snow  
Snow 0.00 in - - ()
Month to date snowfall  
Since 1 July snowfall  
Snow Depth -    
Sea Level Pressure  
Sea Level Pressure 30.33 in    
Wind  
Wind Speed 8 mph (South)    
Max Wind Speed 16 mph    
Max Gust Speed -    
Visibility 10 miles    
Events      
T = Trace of Precipitation, MM = Missing Value Source: NWS Daily Summary

Daily Weather History Graph

Daily Weather History Graph

Search for Another Location

Airport:

Trip Planner

Search our weather history database for the weather conditions in past years. The results will help you decide how hot, cold, wet, or windy it might be!

Date:

Astronomy

Jan. 17, 2013 Rise Set
Actual Time 7:16 AM MST 5:00 PM MST
Civil Twilight 6:47 AM MST 5:30 PM MST
Nautical Twilight 6:13 AM MST 6:03 PM MST
Astronomical Twilight 5:41 AM MST 6:35 PM MST
Moon 10:25 AM MST (1/17) 11:53 PM MST (1/17)
Length of Visible Light 10h 43m
Length of Day
9h 44m
Waxing Crescent, 38% of the Moon is Illuminated
Jan 17
Waxing Crescent
Jan 18
First Quarter
Jan 26
Full
Feb 3
Last Quarter
Feb 10
New

Hourly Weather History & Observations

Time (MST) Temp. Windchill Dew Point Humidity Pressure Visibility Wind Dir Wind Speed Gust Speed Precip Events Conditions
12:05 AM 26.6 °F 18.2 °F 19.4 °F 74% 30.35 in 10.0 mi South 8.1 mph - N/A   Clear
12:25 AM 26.6 °F 18.2 °F 19.4 °F 74% 30.35 in 10.0 mi South 8.1 mph - N/A   Clear
12:45 AM 26.6 °F 18.2 °F 19.4 °F 74% 30.36 in 10.0 mi South 8.1 mph - N/A   Clear
1:05 AM 28.4 °F 20.4 °F 19.4 °F 69% 30.36 in 10.0 mi South 8.1 mph - N/A   Clear
1:25 AM 28.4 °F 20.4 °F 19.4 °F 69% 30.36 in 10.0 mi South 8.1 mph - N/A   Clear
1:44 AM 26.6 °F 17.5 °F 19.4 °F 74% 30.36 in 10.0 mi South 9.2 mph - N/A   Clear
2:05 AM 26.6 °F 18.2 °F 19.4 °F 74% 30.37 in 10.0 mi South 8.1 mph - N/A   Clear
2:45 AM 28.4 °F 20.4 °F 17.6 °F 64% 30.37 in 10.0 mi South 8.1 mph - N/A   Clear
3:05 AM 26.6 °F 18.2 °F 17.6 °F 69% 30.37 in 10.0 mi South 8.1 mph - N/A   Clear
3:25 AM 26.6 °F 19.1 °F 17.6 °F 69% 30.37 in 10.0 mi South 6.9 mph - N/A   Clear
3:44 AM 26.6 °F 18.2 °F 17.6 °F 69% 30.37 in 10.0 mi South 8.1 mph - N/A   Clear
4:05 AM 28.4 °F 20.4 °F 17.6 °F 64% 30.37 in 10.0 mi South 8.1 mph - N/A   Clear
4:25 AM 28.4 °F 20.4 °F 17.6 °F 64% 30.38 in 10.0 mi South 8.1 mph - N/A   Clear
4:45 AM 26.6 °F 18.2 °F 17.6 °F 69% 30.38 in 10.0 mi South 8.1 mph - N/A   Clear
5:05 AM 26.6 °F 16.8 °F 17.6 °F 69% 30.38 in 10.0 mi South 10.4 mph - N/A   Clear
5:25 AM 28.4 °F 19.7 °F 17.6 °F 64% 30.38 in 10.0 mi South 9.2 mph - N/A   Clear
5:45 AM 26.6 °F 17.5 °F 17.6 °F 69% 30.38 in 10.0 mi South 9.2 mph - N/A   Clear
6:05 AM 26.6 °F 17.5 °F 17.6 °F 69% 30.38 in 10.0 mi SSW 9.2 mph - N/A   Clear
6:25 AM 30.2 °F 18.9 °F 17.6 °F 60% 30.38 in 10.0 mi SSW 16.1 mph - N/A   Clear
6:45 AM 30.2 °F 22.6 °F 17.6 °F 60% 30.39 in 10.0 mi South 8.1 mph - N/A   Clear
7:02 AM 26.6 °F 18.2 °F 17.6 °F 69% 30.39 in 10.0 mi South 8.1 mph - N/A   Clear
8:50 AM 28.4 °F 19.7 °F 19.4 °F 69% 30.40 in 50.0 mi SSW 9.2 mph - N/A   Clear
9:50 AM 37.4 °F 34.9 °F 23.0 °F 56% 30.45 in 10.0 mi SSW 3.5 mph - N/A   Clear
10:47 AM 41.0 °F 36.4 °F 24.8 °F 53% 30.42 in 50.0 mi WSW 6.9 mph - N/A   Partly Cloudy
12:47 PM 46.4 °F 44.3 °F 24.8 °F 43% 30.14 in 50.0 mi South 4.6 mph - N/A   Partly Cloudy
4:50 PM 41.0 °F 38.0 °F 30.2 °F 65% 30.28 in 50.0 mi South 4.6 mph - N/A   Partly Cloudy
5:50 PM 37.4 °F - 28.4 °F 70% 30.28 in 50.0 mi Calm Calm - N/A   Partly Cloudy
6:47 PM 32.0 °F 25.6 °F 26.6 °F 80% 30.27 in 50.0 mi South 6.9 mph - N/A   Partly Cloudy
7:50 PM 32.0 °F 24.8 °F 24.8 °F 75% 30.29 in 50.0 mi South 8.1 mph - N/A   Clear
9:05 PM 32.0 °F 24.2 °F 24.8 °F 75% 30.25 in 10.0 mi South 9.2 mph - N/A   Clear
9:25 PM 32.0 °F 23.0 °F 24.8 °F 75% 30.25 in 10.0 mi South 11.5 mph - N/A   Clear
9:45 PM 32.0 °F 23.6 °F 24.8 °F 75% 30.24 in 10.0 mi South 10.4 mph - N/A   Clear
10:04 PM 32.0 °F 24.2 °F 23.0 °F 69% 30.23 in 10.0 mi South 9.2 mph - N/A   Clear
10:25 PM 32.0 °F 24.2 °F 23.0 °F 69% 30.23 in 10.0 mi SSW 9.2 mph - N/A   Clear
10:45 PM 30.2 °F 23.4 °F 23.0 °F 75% 30.22 in 10.0 mi SSW 6.9 mph - N/A   Clear
11:05 PM 33.8 °F 25.3 °F 23.0 °F 65% 30.22 in 10.0 mi SSW 11.5 mph - N/A   Clear
11:25 PM 35.6 °F 27.5 °F 21.2 °F 56% 30.21 in 10.0 mi SSW 11.5 mph - N/A   Clear
11:45 PM 37.4 °F 29.3 °F 21.2 °F 52% 30.20 in 10.0 mi SSW 12.7 mph - N/A   Clear